Hourly Data Report for October 04, 2017

All times are specified in Local Standard Time (LST). Add 1 hour to adjust for Daylight Saving Time where and when it is observed.

BACCARO PT
NOVA SCOTIA

43°27'03.000" N
65°28'18.000" W
4.60 m
8200255
71920
ACP

Download Data

Hourly Data (October 2017)
Hourly Data Report for October 4, 2017
Temp Definition
°C
Dew Point Temp Definition
°C
Rel Hum Definition
%
Wind Dir Definition
10's deg

Wind Spd Definition
km/h
Visibility Definition
km
Stn Press Definition
kPa
Hmdx Definition


Wind Chill Definition


Weather Definition


TIME
00:00 12.6 8.3 75 25 20   103.18     LegendNANA
01:00 12.9 8.3 73 24 26   103.12     LegendNANA
02:00 13.2 9.0 76 24 27   103.06     LegendNANA
03:00 13.4 9.1 75 23 27   102.98     LegendNANA
04:00 13.5 9.8 78 24 34   102.97     LegendNANA
05:00 13.7 10.6 81 24 33   102.91     LegendNANA
06:00 13.9 10.9 82 24 35   102.87     LegendNANA
07:00 14.4 11.7 84 24 37   102.80     LegendNANA
08:00 15.0 12.4 85 24 37   102.75     LegendNANA
09:00 15.5 12.5 83 24 44   102.71     LegendNANA
10:00 16.0 13.3 85 25 39   102.66     LegendNANA
11:00 16.4 13.3 82 25 36   102.62     LegendNANA
12:00 16.6 13.2 80 25 40   102.52     LegendNANA
13:00 16.6 13.8 83 25 38   102.42     LegendNANA
14:00 16.7 14.4 86 24 38   102.30     LegendNANA
15:00 16.6 14.5 87 25 39   102.27     LegendNANA
16:00 15.9 14.3 90 25 41   102.20     LegendNANA
17:00 15.7 14.7 94 25 39   102.14     LegendNANA
18:00 15.5 14.9 96 24 36   102.03     LegendNANA
19:00 15.4 15.0 98 24 36   102.00     LegendNANA
20:00 15.6 15.1 97 24 38   101.98     LegendNANA
21:00 15.6 15.2 98 24 37   101.92     LegendNANA
22:00 15.7 15.3 98 24 39   101.87     LegendNANA
23:00 15.4 15.1 98 24 44   101.75     LegendNANA

Notes on Data Quality.

Legend

  • E = Estimated
  • M = Missing
  • NA = Not Available
  • ‡ = Partner data that is not subject to review by the National Climate Archives
Date modified: